Weather History for K2D5 - April, 2013

Change the Weather History Date:

Tuesday, April 23, 2013

  Actual Average (KABR) Record (KABR)
Temperature  
Mean Temperature 27 °F 48 °F  
Max Temperature 39 °F 61 °F 90 °F (2009)
Min Temperature 15 °F 35 °F 14 °F (1956)
Degree Days  
Heating Degree Days 38 17  
Month to date heating degree days 513  
Since 1 July heating degree days 8064  
Cooling Degree Days 0 0  
Month to date cooling degree days 0  
Year to date cooling degree days 0  
Moisture  
Dew Point 23 °F    
Average Humidity 83    
Maximum Humidity 100    
Minimum Humidity 60    
Precipitation  
Precipitation 0.00 in 0.07 in 1.85 in (1902)
Month to date precipitation 1.25  
Year to date precipitation 3.43  
Snow  
Snow 0.00 in - - ()
Month to date snowfall  
Since 1 July snowfall  
Snow Depth -    
Sea Level Pressure  
Sea Level Pressure 30.19 in    
Wind  
Wind Speed 9 mph (West)    
Max Wind Speed 12 mph    
Max Gust Speed -    
Visibility 10 miles    
Events      
T = Trace of Precipitation, MM = Missing Value Source: NWS Daily Summary

Daily Weather History Graph

Daily Weather History Graph

Search for Another Location

Airport or City:

Trip Planner

Search our weather history database for the weather conditions in past years. The results will help you decide how hot, cold, wet, or windy it might be!

Date:

Astronomy

Apr. 23, 2013 Rise Set
Actual Time 6:31 AM CDT 8:30 PM CDT
Civil Twilight 5:59 AM CDT 9:03 PM CDT
Nautical Twilight 5:19 AM CDT 9:42 PM CDT
Astronomical Twilight 4:35 AM CDT 10:26 PM CDT
Moon 6:21 PM CDT (4/23) 5:07 AM CDT (4/23)
Length of Visible Light 15h 03m
Length of Day
13h 59m
Waxing Gibbous, 94% of the Moon is Illuminated
Apr 23
Waxing Gibbous
Apr 25
Full
May 2
Last Quarter
May 9
New
May 17
First Quarter

Hourly Weather History & Observations

Time (CDT) Temp. Windchill Dew Point Humidity Pressure Visibility Wind Dir Wind Speed Gust Speed Precip Events Conditions
12:15 AM 24.8 °F 15.3 °F 23.0 °F 93% 30.35 in 10.0 mi WNW 9.2 mph - N/A   Unknown
12:35 AM 23.0 °F 11.7 °F 23.0 °F 100% 30.34 in 10.0 mi WNW 11.5 mph - N/A   Unknown
12:55 AM 23.0 °F 11.7 °F 23.0 °F 100% 30.33 in 10.0 mi WNW 11.5 mph - N/A   Unknown
1:15 AM 23.0 °F 12.4 °F 21.2 °F 93% 30.33 in 10.0 mi WNW 10.4 mph - N/A   Unknown
1:35 AM 23.0 °F 12.4 °F 19.4 °F 86% 30.33 in 10.0 mi NW 10.4 mph - N/A   Unknown
2:15 AM 19.4 °F 7.9 °F 19.4 °F 100% 30.32 in 10.0 mi WNW 10.4 mph - N/A   Unknown
2:35 AM 19.4 °F 9.5 °F 19.4 °F 100% 30.32 in 10.0 mi WNW 8.1 mph - N/A   Unknown
3:15 AM 17.6 °F 7.3 °F 17.6 °F 100% 30.31 in 10.0 mi WNW 8.1 mph - N/A   Unknown
3:35 AM 17.6 °F 6.4 °F 17.6 °F 100% 30.30 in 10.0 mi WNW 9.2 mph - N/A   Unknown
3:55 AM 17.6 °F 6.4 °F 17.6 °F 100% 30.30 in 10.0 mi WNW 9.2 mph - N/A   Unknown
4:15 AM 17.6 °F 6.4 °F 15.8 °F 93% 30.29 in 10.0 mi WNW 9.2 mph - N/A   Unknown
4:35 AM 17.6 °F 6.4 °F 15.8 °F 93% 30.29 in 10.0 mi WNW 9.2 mph - N/A   Unknown
4:55 AM 15.8 °F 5.1 °F 15.8 °F 100% 30.28 in 10.0 mi WNW 8.1 mph - N/A   Unknown
5:15 AM 15.8 °F 7.2 °F 15.8 °F 100% 30.28 in 10.0 mi West 5.8 mph - N/A   Unknown
5:35 AM 15.8 °F 5.1 °F 15.8 °F 100% 30.28 in 10.0 mi WNW 8.1 mph - N/A   Unknown
5:55 AM 15.8 °F 5.1 °F 15.8 °F 100% 30.28 in 10.0 mi West 8.1 mph - N/A   Unknown
6:15 AM 15.8 °F 4.2 °F 15.8 °F 100% 30.28 in 10.0 mi West 9.2 mph - N/A   Unknown
6:35 AM 15.8 °F 5.1 °F 14.0 °F 93% 30.27 in 10.0 mi West 8.1 mph - N/A   Unknown
6:55 AM 15.8 °F 6.1 °F 14.0 °F 93% 30.27 in 10.0 mi West 6.9 mph - N/A   Unknown
7:15 AM 15.8 °F 7.2 °F 14.0 °F 93% 30.27 in 10.0 mi West 5.8 mph - N/A   Unknown
7:35 AM 17.6 °F 8.2 °F 15.8 °F 93% 30.27 in 10.0 mi West 6.9 mph - N/A   Unknown
7:55 AM 17.6 °F 7.3 °F 15.8 °F 93% 30.27 in 10.0 mi West 8.1 mph - N/A   Unknown
8:15 AM 19.4 °F 8.6 °F 17.6 °F 93% 30.27 in 10.0 mi West 9.2 mph - N/A   Unknown
8:35 AM 21.2 °F 9.5 °F 17.6 °F 86% 30.27 in 10.0 mi WNW 11.5 mph - N/A   Unknown
8:55 AM 23.0 °F 12.4 °F 19.4 °F 86% 30.26 in 10.0 mi WNW 10.4 mph - N/A   Unknown
9:15 AM 23.0 °F 11.7 °F 19.4 °F 86% 30.26 in 10.0 mi West 11.5 mph - N/A   Unknown
9:35 AM 24.8 °F 14.0 °F 19.4 °F 80% 30.26 in 10.0 mi West 11.5 mph - N/A   Unknown
9:55 AM 26.6 °F 17.5 °F 21.2 °F 80% 30.25 in 10.0 mi WNW 9.2 mph - N/A   Unknown
10:15 AM 26.6 °F 16.8 °F 23.0 °F 86% 30.25 in 10.0 mi West 10.4 mph - N/A   Unknown
10:35 AM 28.4 °F 19.7 °F 23.0 °F 80% 30.24 in 10.0 mi West 9.2 mph - N/A   Unknown
10:55 AM 28.4 °F 19.1 °F 23.0 °F 80% 30.24 in 10.0 mi West 10.4 mph - N/A   Unknown
11:15 AM 28.4 °F 21.2 °F 23.0 °F 80% 30.23 in 10.0 mi West 6.9 mph - N/A   Unknown
11:35 AM 30.2 °F 23.4 °F 24.8 °F 80% 30.23 in 10.0 mi West 6.9 mph - N/A   Unknown
11:55 AM 32.0 °F 24.8 °F 23.0 °F 69% 30.22 in 10.0 mi West 8.1 mph - N/A   Unknown
12:15 PM 32.0 °F 23.6 °F 23.0 °F 69% 30.22 in 10.0 mi WSW 10.4 mph - N/A   Unknown
12:35 PM 32.0 °F 24.2 °F 23.0 °F 69% 30.21 in 10.0 mi West 9.2 mph - N/A   Unknown
12:55 PM 32.0 °F 24.2 °F 21.2 °F 64% 30.20 in 10.0 mi West 9.2 mph - N/A   Unknown
1:15 PM 32.0 °F 23.6 °F 21.2 °F 64% 30.19 in 10.0 mi West 10.4 mph - N/A   Unknown
1:35 PM 32.0 °F 23.6 °F 23.0 °F 69% 30.18 in 10.0 mi WSW 10.4 mph - N/A   Unknown
1:55 PM 33.8 °F 25.8 °F 23.0 °F 65% 30.17 in 10.0 mi WSW 10.4 mph - N/A   Unknown
2:15 PM 33.8 °F 27.0 °F 24.8 °F 70% 30.17 in 10.0 mi SSW 8.1 mph - N/A   Unknown
2:35 PM 33.8 °F 25.8 °F 24.8 °F 70% 30.16 in 10.0 mi SW 10.4 mph - N/A   Unknown
2:55 PM 35.6 °F 28.6 °F 24.8 °F 65% 30.15 in 10.0 mi SW 9.2 mph - N/A   Unknown
3:15 PM 35.6 °F 29.2 °F 24.8 °F 65% 30.14 in 10.0 mi SSW 8.1 mph - N/A   Unknown
3:35 PM 37.4 °F 29.8 °F 24.8 °F 60% 30.12 in 10.0 mi SW 11.5 mph - N/A   Unknown
3:55 PM 37.4 °F 31.4 °F 24.8 °F 60% 30.12 in 10.0 mi SW 8.1 mph - N/A   Unknown
4:15 PM 37.4 °F 30.8 °F 26.6 °F 65% 30.11 in 10.0 mi SSW 9.2 mph - N/A   Unknown
4:35 PM 37.4 °F 30.8 °F 26.6 °F 65% 30.10 in 10.0 mi SW 9.2 mph - N/A   Unknown
4:55 PM 37.4 °F 30.8 °F 26.6 °F 65% 30.09 in 10.0 mi SW 9.2 mph - N/A   Unknown
5:15 PM 37.4 °F 30.8 °F 28.4 °F 70% 30.08 in 10.0 mi SSW 9.2 mph - N/A   Unknown
5:35 PM 37.4 °F 30.8 °F 28.4 °F 70% 30.08 in 10.0 mi SW 9.2 mph - N/A   Unknown
5:55 PM 39.2 °F 34.2 °F 32.0 °F 75% 30.07 in 10.0 mi WSW 6.9 mph - N/A   Unknown
6:15 PM 39.2 °F 35.0 °F 30.2 °F 70% 30.07 in 10.0 mi WSW 5.8 mph - N/A   Unknown
6:35 PM 39.2 °F 35.0 °F 30.2 °F 70% 30.07 in 10.0 mi WSW 5.8 mph - N/A   Unknown
6:55 PM 39.2 °F 35.9 °F 28.4 °F 65% 30.06 in 10.0 mi WSW 4.6 mph - N/A   Unknown
7:15 PM 37.4 °F 32.8 °F 32.0 °F 81% 30.06 in 10.0 mi SSW 5.8 mph - N/A   Unknown
7:35 PM 37.4 °F 32.1 °F 32.0 °F 81% 30.05 in 10.0 mi South 6.9 mph - N/A   Unknown
7:55 PM 35.6 °F 29.9 °F 32.0 °F 87% 30.05 in 10.0 mi SSW 6.9 mph - N/A   Unknown
8:15 PM 35.6 °F 29.2 °F 32.0 °F 87% 30.05 in 10.0 mi SSW 8.1 mph - N/A   Unknown
8:35 PM 33.8 °F 28.6 °F 32.0 °F 93% 30.05 in 10.0 mi SW 5.8 mph - N/A   Unknown
8:55 PM 35.6 °F 31.7 °F 30.2 °F 81% 30.05 in 10.0 mi SW 4.6 mph - N/A   Unknown
9:15 PM 35.6 °F - 30.2 °F 81% 30.06 in 10.0 mi Calm Calm - N/A   Unknown
9:35 PM 33.8 °F 27.7 °F 30.2 °F 87% 30.06 in 10.0 mi SW 6.9 mph - N/A   Unknown
9:55 PM 32.0 °F 26.4 °F 28.4 °F 87% 30.06 in 10.0 mi WSW 5.8 mph - N/A   Unknown
10:15 PM 32.0 °F 25.6 °F 28.4 °F 87% 30.05 in 10.0 mi WSW 6.9 mph - N/A   Unknown
10:35 PM 32.0 °F 25.6 °F 28.4 °F 87% 30.05 in 10.0 mi WSW 6.9 mph - N/A   Unknown
10:55 PM 32.0 °F 27.5 °F 26.6 °F 80% 30.04 in 10.0 mi WSW 4.6 mph - N/A   Unknown
11:15 PM 32.0 °F 27.5 °F 26.6 °F 80% 30.03 in 10.0 mi West 4.6 mph - N/A   Unknown
11:55 PM 32.0 °F 25.6 °F 26.6 °F 80% 30.02 in 10.0 mi SW 6.9 mph - N/A   Unknown